Back to catalog

COSMOS 1188 DEB

LostHEO
NORAD 26675·DEBRIS·🇷🇺 Russia

Launched Jun 14, 1980 from Plesetsk Cosmodrome

Loading…

Next Passes (next 24 hours)

TLE

StaleSource: Space-Track

Epoch: Jan 31, 2024, 20:30 UTC

1 26675U 80050E   24031.85460483 -.00000154  00000-0  00000+0 0  9997
2 26675  72.0764 202.7279 5546599 215.0390  91.2186  1.94412480211976

Track COSMOS 1188 DEB in real time with AllMySat

Download on the App Store